EW9327 Weather Reports


Display with metric or nautical units.
time (UTC)temp
F
wind
direction
speed
MPH
gust
MPH
rain 1hr
in
rain 24hr
in
rain mn
in
humidity
%
barometer
mb
20210729062153 64 0 0.0 0.0 0.00 0.00 0.00 89 1002.1
20210729061654 65 105 0.0 0.0 0.00 0.00 0.00 89 1002.1
20210729061153 64 0 0.0 0.0 0.00 0.00 0.00 89 1002.2
20210729060654 64 105 0.0 0.0 0.00 0.00 0.00 88 1002.2
20210729060156 65 0 0.0 0.0 0.00 0.00 0.00 88 1002.2
20210729055653 65 0 0.0 0.0 0.00 0.00 0.00 88 1002.1
20210729055155 65 0 0.0 0.0 0.00 0.00 0.00 88 1002.2
20210729054653 65 0 0.0 0.0 0.00 0.00 0.00 88 1002.2
20210729054155 65 0 0.0 0.0 0.00 0.00 0.00 87 1002.2
20210729053653 65 105 0.0 0.0 0.00 0.00 0.00 87 1002.1
20210729053153 65 0 0.0 0.0 0.00 0.00 0.00 87 1002.2
20210729052654 65 0 0.0 0.0 0.00 0.00 0.00 88 1002.2
20210729052156 66 0 0.0 0.0 0.00 0.00 0.00 87 1002.3
20210729051653 66 94 0.0 0.0 0.00 0.00 0.00 88 1002.3
20210729051155 66 94 0.0 0.0 0.00 0.00 0.00 88 1002.3
20210729050653 66 101 0.0 0.0 0.00 0.00 0.00 87 1002.3
20210729050154 66 107 0.0 0.0 0.00 0.00 0.00 85 1002.3
20210729045656 66 151 0.0 0.0 0.00 0.00 0.00 84 1002.3
20210729045153 66 151 0.0 0.0 0.00 0.00 0.00 83 1002.2
20210729044656 67 151 0.0 0.0 0.00 0.00 0.00 82 1002.2
20210729044153 67 151 0.0 0.0 0.00 0.00 0.00 81 1002.2
20210729043653 67 151 0.0 0.0 0.00 0.00 0.00 81 1002.2
20210729043153 67 180 0.0 0.0 0.00 0.00 0.00 80 1002.1
20210729042654 67 279 0.0 0.0 0.00 0.00 0.00 78 1002.1
20210729042153 67 279 0.0 0.0 0.00 0.00 0.00 78 1002.1
20210729041655 68 279 0.0 0.0 0.00 0.00 0.00 78 1002.1
20210729041153 68 279 0.0 0.0 0.00 0.00 0.00 79 1001.9
20210729040654 68 279 0.0 0.0 0.00 0.00 0.00 79 1001.9
20210729040153 69 279 0.0 0.0 0.00 0.00 0.00 79 1001.9
20210729035654 69 279 0.0 0.0 0.00 0.00 0.00 77 1001.8
20210729035153 69 279 0.0 0.0 0.00 0.00 0.00 77 1001.8
20210729034653 69 279 0.0 0.0 0.00 0.00 0.00 78 1001.7
20210729034153 69 279 0.0 0.0 0.00 0.00 0.00 76 1001.6
20210729033652 70 279 0.0 0.0 0.00 0.00 0.00 75 1001.6
20210729033152 70 279 0.0 0.0 0.00 0.00 0.00 75 1001.6
20210729032649 70 279 0.0 0.0 0.00 0.00 0.00 74 1001.6
20210729032150 70 279 0.0 0.0 0.00 0.00 0.00 75 1001.6
20210729031649 70 279 0.0 0.0 0.00 0.00 0.00 74 1001.5
20210729031151 70 0 0.0 0.0 0.00 0.00 0.00 73 1001.5
20210729030649 71 278 0.0 0.0 0.00 0.00 0.00 72 1001.5
20210729030149 71 278 0.0 0.0 0.00 0.00 0.00 70 1001.4
20210729025649 71 278 0.0 0.0 0.00 0.00 0.00 70 1001.3
20210729025147 71 278 0.0 0.0 0.00 0.00 0.00 71 1001.2
20210729024648 71 279 0.0 0.0 0.00 0.00 0.00 72 1001.2
20210729024148 71 262 0.0 0.0 0.00 0.00 0.00 73 1001.2
20210729023647 71 263 0.0 0.0 0.00 0.00 0.00 74 1001.2
20210729023144 71 263 0.0 0.0 0.00 0.00 0.00 75 1001.2
20210729022643 71 262 0.0 0.0 0.00 0.00 0.00 75 1001.1
20210729022144 71 184 0.0 0.0 0.00 0.00 0.00 75 1001.2
20210729021645 71 0 0.0 0.0 0.00 0.00 0.00 76 1001.1
20210729021142 71 0 0.0 0.0 0.00 0.00 0.00 76 1001.0
20210729020642 71 184 0.0 0.0 0.00 0.00 0.00 76 1001.1
20210729020141 72 0 0.0 0.0 0.00 0.00 0.00 77 1001.1
20210729015641 72 0 0.0 0.0 0.00 0.00 0.00 77 1001.1
20210729015143 72 0 0.0 0.0 0.00 0.00 0.00 76 1001.1
20210729014641 73 198 0.0 0.0 0.00 0.00 0.00 76 1001.1
20210729014143 73 205 0.0 0.0 0.00 0.00 0.00 75 1001.1
20210729013640 73 0 0.0 0.0 0.00 0.00 0.00 76 1001.2
20210729013139 73 206 0.0 0.0 0.00 0.00 0.00 76 1001.2
20210729012640 74 233 0.0 0.0 0.00 0.00 0.00 76 1001.1
20210729012141 74 235 0.0 0.0 0.00 0.00 0.00 76 1001.1
20210729011641 74 237 0.0 0.0 0.00 0.00 0.00 76 1001.2
20210729011140 74 239 0.0 0.0 0.00 0.00 0.00 76 1001.2
20210729010639 74 184 0.0 0.0 0.00 0.00 0.00 76 1001.1
20210729010140 74 241 0.0 0.0 0.00 0.00 0.00 75 1001.1
20210729005639 74 219 0.0 0.0 0.00 0.00 0.00 75 1001.2
20210729005140 75 214 0.0 0.0 0.00 0.00 0.00 73 1001.2
20210729004637 75 188 0.0 0.0 0.00 0.00 0.00 72 1001.2
20210729004138 75 188 0.0 0.0 0.00 0.00 0.00 73 1001.1
20210729003638 75 183 0.0 0.0 0.00 0.00 0.00 73 1001.1
20210729003139 75 177 0.0 0.0 0.00 0.00 0.00 73 1001.2
20210729002637 75 177 0.0 0.0 0.00 0.00 0.00 72 1001.2
20210729002137 76 185 0.0 0.0 0.00 0.00 0.00 70 1001.2
20210729001637 76 148 0.0 0.0 0.00 0.00 0.00 70 1001.2
20210729001140 77 187 0.0 0.0 0.00 0.00 0.00 69 1001.1
20210729000636 77 178 0.0 0.0 0.00 0.00 0.00 69 1001.2
20210729000137 77 144 0.0 0.0 0.00 0.00 0.00 69 1001.2
20210728235635 77 140 0.0 0.0 0.00 0.00 0.00 69 1001.2
20210728235135 78 126 0.0 0.0 0.00 0.00 0.00 66 1001.1
20210728234636 78 159 0.0 0.0 0.00 0.00 0.00 65 1001.2
20210728234135 79 151 0.0 0.0 0.00 0.00 0.00 65 1001.2
20210728233635 79 159 0.0 0.0 0.00 0.00 0.00 64 1001.1
20210728233137 78 203 0.0 0.0 0.00 0.00 0.00 67 1001.1
20210728232636 78 178 0.0 0.0 0.00 0.00 0.00 66 1001.1
20210728232135 78 183 0.0 0.0 0.00 0.00 0.00 66 1001.2
20210728231635 78 146 0.0 0.0 0.00 0.00 0.00 67 1001.3
20210728231134 78 170 0.0 0.0 0.00 0.00 0.00 67 1001.3
20210728230633 78 140 0.0 0.0 0.00 0.00 0.00 67 1001.3
20210728230134 79 186 0.0 0.0 0.00 0.00 0.00 66 1001.4
20210728225632 80 158 0.0 0.0 0.00 0.00 0.00 66 1001.5
20210728225134 80 175 0.0 0.0 0.00 0.00 0.00 65 1001.5
20210728224633 79 228 0.0 0.0 0.00 0.00 0.00 67 1001.6
20210728224132 79 190 0.0 0.0 0.00 0.00 0.00 67 1001.6
20210728223635 78 169 0.0 0.0 0.00 0.00 0.00 69 1001.8
20210728223135 78 136 0.0 0.0 0.00 0.00 0.00 69 1001.9
20210728222633 78 177 0.0 0.0 0.00 0.00 0.00 68 1001.9
20210728222134 78 197 0.0 0.0 0.00 0.00 0.00 68 1001.9
20210728221633 78 184 0.0 0.0 0.00 0.00 0.00 69 1002.0
20210728221134 77 234 0.0 0.0 0.00 0.00 0.00 70 1002.1
20210728220633 77 196 0.0 0.0 0.00 0.00 0.00 70 1002.1
20210728220133 77 251 0.0 0.0 0.00 0.00 0.00 71 1002.2
20210728215634 76 190 0.0 0.0 0.00 0.00 0.00 73 1002.2
20210728215134 76 200 0.0 0.0 0.00 0.00 0.00 71 1002.3
20210728214633 77 213 0.0 0.0 0.00 0.00 0.00 71 1002.4
20210728214134 77 225 0.0 0.0 0.00 0.00 0.00 71 1002.4
20210728213631 77 192 0.0 0.0 0.00 0.00 0.00 71 1002.4
20210728213130 77 205 0.0 0.0 0.00 0.00 0.00 70 1002.5
20210728212630 77 190 0.0 0.0 0.00 0.00 0.00 71 1002.6
20210728212130 77 184 0.0 0.0 0.00 0.00 0.00 70 1002.6
20210728211631 77 180 0.0 0.0 0.00 0.00 0.00 70 1002.8
20210728211131 77 186 0.0 0.0 0.00 0.00 0.00 69 1002.8
20210728210631 77 236 0.0 0.0 0.00 0.00 0.00 70 1002.9
20210728210132 77 217 0.0 0.0 0.00 0.00 0.00 70 1003.0
20210728205630 77 215 0.0 0.0 0.00 0.00 0.00 69 1003.0
20210728205130 77 204 0.0 0.0 0.00 0.00 0.00 70 1003.0
20210728204628 77 187 0.0 0.0 0.00 0.00 0.00 70 1003.0
20210728204129 77 267 0.0 0.0 0.00 0.00 0.00 69 1003.1
20210728203626 77 214 0.0 0.0 0.00 0.00 0.00 68 1003.2
20210728203126 77 244 0.0 0.0 0.00 0.00 0.00 68 1003.1
20210728202626 77 245 0.0 0.0 0.00 0.00 0.00 69 1003.2
20210728202124 77 184 0.0 0.0 0.00 0.00 0.00 68 1003.2
20210728201625 77 323 0.0 0.0 0.00 0.00 0.00 70 1003.3
20210728201126 77 186 0.0 0.0 0.00 0.00 0.00 69 1003.4
20210728200627 77 215 0.0 0.0 0.00 0.00 0.00 70 1003.4
20210728200125 77 205 0.0 0.0 0.00 0.00 0.00 71 1003.5
20210728195625 77 275 0.0 0.0 0.00 0.00 0.00 71 1003.5
20210728195124 77 192 0.0 0.0 0.00 0.00 0.00 71 1003.5
20210728194625 77 201 0.0 0.0 0.00 0.00 0.00 72 1003.6
20210728194125 77 236 0.0 0.0 0.00 0.00 0.00 71 1003.6
20210728193625 76 313 0.0 0.0 0.00 0.00 0.00 72 1003.6
20210728193125 76 225 0.0 0.0 0.00 0.00 0.00 72 1003.7
20210728192624 76 184 0.0 0.0 0.00 0.00 0.00 72 1003.7
20210728192124 76 223 0.0 0.0 0.00 0.00 0.00 73 1003.7
20210728191624 76 218 0.0 0.0 0.00 0.00 0.00 72 1003.7
20210728191125 76 226 0.0 0.0 0.00 0.00 0.00 74 1003.8
20210728190625 76 250 0.0 0.0 0.00 0.00 0.00 75 1003.8
20210728190125 76 230 0.0 0.0 0.00 0.00 0.00 73 1003.8
20210728185625 77 270 0.0 0.0 0.00 0.00 0.00 74 1003.9
20210728185124 77 248 0.0 0.0 0.00 0.00 0.00 74 1003.9
20210728184624 76 180 0.0 0.0 0.00 0.00 0.00 75 1003.9
20210728184125 76 216 0.0 0.0 0.00 0.00 0.00 74 1003.8
20210728183626 76 198 0.0 0.0 0.00 0.00 0.00 77 1003.8
20210728183124 76 251 0.0 0.0 0.00 0.00 0.00 74 1003.9
20210728182625 76 187 0.0 0.0 0.00 0.00 0.00 75 1004.0
20210728182126 76 270 0.0 0.0 0.00 0.00 0.00 76 1003.9
20210728181625 76 190 0.0 0.0 0.00 0.00 0.00 75 1003.9
20210728181124 76 184 0.0 0.0 0.00 0.00 0.00 75 1003.9
20210728180623 76 188 0.0 0.0 0.00 0.00 0.00 76 1003.9
20210728180124 76 193 0.0 0.0 0.00 0.00 0.00 77 1003.9
20210728175623 75 220 0.0 0.0 0.00 0.00 0.00 77 1003.8
20210728175123 75 227 0.0 0.0 0.00 0.00 0.00 77 1003.8
20210728174623 75 217 0.0 0.0 0.00 0.00 0.00 77 1003.8
20210728174124 75 202 0.0 0.0 0.00 0.00 0.00 78 1003.8
20210728173624 75 187 0.0 0.0 0.00 0.00 0.00 79 1003.8
20210728173122 75 240 0.0 0.0 0.00 0.00 0.00 78 1003.8
20210728172621 75 195 0.0 0.0 0.00 0.00 0.00 78 1003.7
20210728172118 75 256 0.0 0.0 0.00 0.00 0.00 78 1003.8
20210728171618 75 263 0.0 0.0 0.00 0.00 0.00 78 1003.7
20210728171120 75 169 0.0 0.0 0.00 0.00 0.00 79 1003.7
20210728170616 74 244 0.0 0.0 0.00 0.00 0.00 78 1003.7
20210728170116 74 231 0.0 0.0 0.00 0.00 0.00 77 1003.7
20210728165616 74 238 0.0 0.0 0.00 0.00 0.00 79 1003.8
20210728165116 74 249 0.0 0.0 0.00 0.00 0.00 79 1003.7
20210728164616 74 213 0.0 0.0 0.00 0.00 0.00 78 1003.7
20210728164117 74 208 0.0 0.0 0.00 0.00 0.00 78 1003.7
20210728163616 74 235 0.0 0.0 0.00 0.00 0.00 79 1003.7
20210728163114 73 254 0.0 0.0 0.00 0.00 0.00 81 1003.7
20210728162614 73 254 0.0 0.0 0.00 0.00 0.00 79 1003.7
20210728162111 73 252 0.0 0.0 0.00 0.00 0.00 80 1003.7
20210728161608 72 226 0.0 0.0 0.00 0.00 0.00 80 1003.6
20210728161108 73 239 0.0 0.0 0.00 0.00 0.00 79 1003.6
20210728160610 73 257 0.0 0.0 0.00 0.00 0.00 79 1003.7
20210728160108 73 259 0.0 0.0 0.00 0.00 0.00 79 1003.7
20210728155609 73 269 0.0 0.0 0.00 0.00 0.00 78 1003.7
20210728155108 74 238 0.0 0.0 0.00 0.00 0.00 78 1003.7
20210728154609 74 250 0.0 0.0 0.00 0.00 0.00 78 1003.7
20210728154108 73 250 0.0 0.0 0.00 0.00 0.00 78 1003.7
20210728153607 73 115 0.0 0.0 0.00 0.00 0.00 78 1003.6
20210728153107 73 115 0.0 0.0 0.00 0.00 0.00 79 1003.6
20210728152605 72 115 0.0 0.0 0.00 0.00 0.00 81 1003.5
20210728152105 72 115 0.0 0.0 0.00 0.00 0.00 81 1003.5
20210728151605 71 115 0.0 0.0 0.00 0.00 0.00 83 1003.5
20210728151104 70 115 0.0 0.0 0.00 0.00 0.00 85 1003.6
20210728150604 69 115 0.0 0.0 0.00 0.00 0.00 86 1003.5
20210728150104 68 115 0.0 0.0 0.00 0.00 0.00 87 1003.4
20210728145604 67 115 0.0 0.0 0.00 0.00 0.00 88 1003.4
20210728145103 67 115 0.0 0.0 0.00 0.00 0.00 88 1003.4
20210728144604 66 115 0.0 0.0 0.00 0.00 0.00 89 1003.5
20210728144103 66 115 0.0 0.0 0.00 0.00 0.00 89 1003.5
20210728143604 66 98 0.0 0.0 0.00 0.00 0.00 89 1003.4
20210728143102 66 97 0.0 0.0 0.00 0.00 0.00 89 1003.4
20210728142602 65 97 0.0 0.0 0.00 0.00 0.00 91 1003.4
20210728142102 64 97 0.0 0.0 0.00 0.00 0.00 91 1003.4
20210728141602 64 97 0.0 0.0 0.00 0.00 0.00 92 1003.5
20210728141101 63 97 0.0 0.0 0.00 0.00 0.00 92 1003.5
20210728140601 63 97 0.0 0.0 0.00 0.00 0.00 93 1003.6
20210728140101 62 97 0.0 0.0 0.00 0.00 0.00 93 1003.5
20210728135601 62 97 0.0 0.0 0.00 0.00 0.00 94 1003.7
20210728135101 62 97 0.0 0.0 0.00 0.00 0.00 94 1003.6
20210728134602 62 97 0.0 0.0 0.00 0.00 0.00 94 1003.6
20210728134100 61 97 0.0 0.0 0.00 0.00 0.00 94 1003.6
20210728133601 61 0 0.0 0.0 0.00 0.00 0.00 94 1003.5
20210728133100 61 0 0.0 0.0 0.00 0.00 0.00 93 1003.4
20210728132600 61 0 0.0 0.0 0.00 0.00 0.00 93 1003.4
20210728132058 61 0 0.0 0.0 0.00 0.00 0.00 93 1003.4
20210728131559 61 0 0.0 0.0 0.00 0.00 0.00 93 1003.3
20210728131059 61 0 0.0 0.0 0.00 0.00 0.00 93 1003.3
20210728130559 61 0 0.0 0.0 0.00 0.00 0.00 93 1003.2
20210728130100 61 0 0.0 0.0 0.00 0.00 0.00 93 1003.2
20210728125558 61 0 0.0 0.0 0.00 0.00 0.00 93 1003.1
20210728125058 61 0 0.0 0.0 0.00 0.00 0.00 93 1003.0
20210728124559 61 0 0.0 0.0 0.00 0.00 0.00 93 1003.0
20210728124059 61 0 0.0 0.0 0.00 0.00 0.00 93 1003.0
20210728123557 61 0 0.0 0.0 0.00 0.00 0.00 93 1003.0
20210728123056 61 0 0.0 0.0 0.00 0.00 0.00 93 1003.0
20210728122557 61 0 0.0 0.0 0.00 0.00 0.00 93 1002.9
20210728122056 61 0 0.0 0.0 0.00 0.00 0.00 93 1002.9
20210728121556 62 0 0.0 0.0 0.00 0.00 0.00 93 1002.7
20210728121058 61 0 0.0 0.0 0.00 0.00 0.00 93 1002.7
20210728120556 62 0 0.0 0.0 0.00 0.00 0.00 93 1002.6
20210728120056 62 0 0.0 0.0 0.00 0.00 0.00 92 1002.6
20210728115555 62 0 0.0 0.0 0.00 0.00 0.00 92 1002.6
20210728115057 62 0 0.0 0.0 0.00 0.00 0.00 92 1002.5
20210728114557 62 0 0.0 0.0 0.00 0.00 0.00 93 1002.5
20210728114056 62 0 0.0 0.0 0.00 0.00 0.00 93 1002.5
20210728113554 62 0 0.0 0.0 0.00 0.00 0.00 93 1002.5
20210728113055 62 0 0.0 0.0 0.00 0.00 0.00 92 1002.5
20210728112554 62 0 0.0 0.0 0.00 0.00 0.00 93 1002.5
20210728112055 62 0 0.0 0.0 0.00 0.00 0.00 93 1002.5
20210728111552 62 0 0.0 0.0 0.00 0.00 0.00 92 1002.5
20210728111052 62 0 0.0 0.0 0.00 0.00 0.00 92 1002.5
20210728110552 62 0 0.0 0.0 0.00 0.00 0.00 92 1002.5
20210728110051 62 0 0.0 0.0 0.00 0.00 0.00 92 1002.6
20210728105553 62 0 0.0 0.0 0.00 0.00 0.00 92 1002.6
20210728105052 62 0 0.0 0.0 0.00 0.00 0.00 92 1002.7
20210728104549 62 0 0.0 0.0 0.00 0.00 0.00 92 1002.6
20210728104051 62 0 0.0 0.0 0.00 0.00 0.00 92 1002.5
20210728103550 62 0 0.0 0.0 0.00 0.00 0.00 92 1002.4
20210728103048 62 0 0.0 0.0 0.00 0.00 0.00 92 1002.5
20210728102548 62 0 0.0 0.0 0.00 0.00 0.00 92 1002.4
20210728102049 62 0 0.0 0.0 0.00 0.00 0.00 92 1002.4
20210728101549 62 0 0.0 0.0 0.00 0.00 0.00 92 1002.5
20210728101048 62 0 0.0 0.0 0.00 0.00 0.00 92 1002.5
20210728100545 62 0 0.0 0.0 0.00 0.00 0.00 92 1002.6
20210728100044 62 0 0.0 0.0 0.00 0.00 0.00 92 1002.6
20210728095543 62 0 0.0 0.0 0.00 0.00 0.00 92 1002.6
20210728095043 62 0 0.0 0.0 0.00 0.00 0.00 92 1002.7
20210728094545 62 100 0.0 0.0 0.00 0.00 0.00 92 1002.7
20210728094044 62 0 0.0 0.0 0.00 0.00 0.00 92 1002.7
20210728093544 62 0 0.0 0.0 0.00 0.00 0.00 92 1002.8
20210728093043 63 0 0.0 0.0 0.00 0.00 0.00 91 1002.7
20210728092543 63 0 0.0 0.0 0.00 0.00 0.00 92 1002.7
20210728092045 63 0 0.0 0.0 0.00 0.00 0.00 91 1002.6
20210728091543 63 0 0.0 0.0 0.00 0.00 0.00 92 1002.7
20210728091044 63 0 0.0 0.0 0.00 0.00 0.00 91 1002.6
20210728090543 63 0 0.0 0.0 0.00 0.00 0.00 91 1002.7
20210728090045 63 0 0.0 0.0 0.00 0.00 0.00 91 1002.6
20210728085545 63 0 0.0 0.0 0.00 0.00 0.00 91 1002.8
20210728085044 63 0 0.0 0.0 0.00 0.00 0.00 91 1002.7
20210728084545 63 0 0.0 0.0 0.00 0.00 0.00 91 1002.7
20210728084045 63 0 0.0 0.0 0.00 0.00 0.00 91 1002.7
20210728083544 63 0 0.0 0.0 0.00 0.00 0.00 91 1002.7
20210728083044 63 0 0.0 0.0 0.00 0.00 0.00 91 1002.8
20210728082544 63 0 0.0 0.0 0.00 0.00 0.00 91 1002.7
20210728082043 63 0 0.0 0.0 0.00 0.00 0.00 91 1002.7
20210728081545 63 0 0.0 0.0 0.00 0.00 0.00 91 1002.7
20210728081045 64 0 0.0 0.0 0.00 0.00 0.00 91 1002.7
20210728080545 64 0 0.0 0.0 0.00 0.00 0.00 92 1002.7
20210728080044 64 0 0.0 0.0 0.00 0.00 0.00 92 1002.7
20210728075544 64 0 0.0 0.0 0.00 0.00 0.00 92 1002.7
20210728075044 64 0 0.0 0.0 0.00 0.00 0.00 92 1002.7
20210728074541 64 0 0.0 0.0 0.00 0.00 0.00 91 1002.7
20210728074042 64 0 0.0 0.0 0.00 0.00 0.00 92 1002.8
20210728073541 64 0 0.0 0.0 0.00 0.00 0.00 92 1002.8
20210728073043 64 0 0.0 0.0 0.00 0.00 0.00 91 1002.9
20210728072541 64 0 0.0 0.0 0.00 0.00 0.00 91 1002.9
20210728072041 64 0 0.0 0.0 0.00 0.00 0.00 91 1003.0
20210728071542 64 0 0.0 0.0 0.00 0.00 0.00 91 1003.0
20210728071042 64 0 0.0 0.0 0.00 0.00 0.00 92 1003.0
20210728070543 64 0 0.0 0.0 0.00 0.00 0.00 92 1003.1
20210728070038 64 0 0.0 0.0 0.00 0.00 0.00 91 1003.0
20210728065536 64 0 0.0 0.0 0.00 0.00 0.00 91 1003.0
20210728065036 64 0 0.0 0.0 0.00 0.00 0.00 91 1003.0
20210728064535 64 0 0.0 0.0 0.00 0.00 0.00 91 1002.9
20210728064035 64 0 0.0 0.0 0.00 0.00 0.00 91 1002.9
20210728063533 64 0 0.0 0.0 0.00 0.00 0.00 91 1003.0
20210728063035 65 0 0.0 0.0 0.00 0.00 0.00 90 1003.0
20210728062534 65 0 0.0 0.0 0.00 0.00 0.00 90 1002.9